This is the latest recevied weather packets stored in our database for station/object HI8S-13. If no packets are shown the sender has not sent any weather packets the latest 1 day(s).
| Time | Temp. | Humidity | Pressure | Rain* | Wind** | Luminosity | Snow |
|---|---|---|---|---|---|---|---|
| 1778016215 | 30° C | 67% | 1015.5 hPa | 0 mm | 0.89 m/s, 239° | - | - |
| 1778015910 | 30° C | 67% | 1015.5 hPa | 0 mm | 1.34 m/s, 221° | - | - |
| 1778015606 | 30° C | 67% | 1015.5 hPa | 0 mm | 2.24 m/s, 150° | - | - |
| 1778015312 | 30.56° C | 66% | 1015.5 hPa | 0 mm | 1.79 m/s, 154° | - | - |
| 1778015014 | 30.56° C | 65% | 1015.5 hPa | 0 mm | 2.24 m/s, 197° | - | - |
| 1778014712 | 30.56° C | 65% | 1015.5 hPa | 0 mm | 0.89 m/s, 167° | - | - |
| 1778014407 | 30.56° C | 65% | 1015.5 hPa | 0 mm | 1.34 m/s, 160° | - | - |
| 1778014113 | 30.56° C | 65% | 1015.6 hPa | 0 mm | 1.34 m/s, 102° | - | - |
| 1778013807 | 30.56° C | 65% | 1015.6 hPa | 0 mm | 2.24 m/s, 115° | - | - |
| 1778013511 | 30.56° C | 64% | 1015.5 hPa | 0 mm | 0.89 m/s, 219° | - | - |
| 1778013207 | 30.56° C | 65% | 1015.5 hPa | 0 mm | 1.79 m/s, 243° | - | - |
| 1778012913 | 30.56° C | 64% | 1015.5 hPa | 0 mm | 1.34 m/s, 183° | - | - |
| 1778012608 | 30.56° C | 63% | 1015.5 hPa | 0 mm | 1.79 m/s, 165° | - | - |
| 1778012310 | 30.56° C | 64% | 1015.5 hPa | 0 mm | 1.79 m/s, 210° | - | - |
| 1778012006 | 30.56° C | 65% | 1015.5 hPa | 0 mm | 0.89 m/s, 160° | - | - |
| 1778011712 | 30.56° C | 65% | 1015.5 hPa | 0 mm | 1.34 m/s, 164° | - | - |
| 1778011408 | 30.56° C | 65% | 1015.6 hPa | 0 mm | 2.24 m/s, 214° | - | - |
| 1778011111 | 30.56° C | 65% | 1015.6 hPa | 0 mm | 1.79 m/s, 179° | - | - |
| 1778010807 | 30.56° C | 65% | 1015.6 hPa | 0 mm | 2.24 m/s, 181° | - | - |
| 1778010513 | 30.56° C | 66% | 1015.7 hPa | 0 mm | 1.79 m/s, 201° | - | - |
| 1778010213 | 30.56° C | 66% | 1015.7 hPa | 0 mm | 1.34 m/s, 217° | - | - |
| 1778009907 | 30.56° C | 66% | 1015.7 hPa | 0 mm | 1.79 m/s, 148° | - | - |
| 1778009611 | 30.56° C | 66% | 1015.7 hPa | 0 mm | 2.68 m/s, 149° | - | - |
| 1778009307 | 30.56° C | 65% | 1015.8 hPa | 0 mm | 2.24 m/s, 181° | - | - |
| 1778009011 | 30.56° C | 67% | 1015.8 hPa | 0 mm | 2.24 m/s, 177° | - | - |
* Rain latest hour (hover to see other rain measurements)
** Current wind speed in m/s (hover to see current wind gust speed)